TimeMST,TemperatureF,Dew PointF,Humidity,Sea Level PressureIn,VisibilityMPH,Wind Direction,Wind SpeedMPH,Gust SpeedMPH,PrecipitationIn,Events,Conditions,WindDirDegrees,DateUTC
12:53 AM,30.9,21.0,67,29.96,10.0,WNW,9.2,-,N/A,,Overcast,300,2013-02-26 07:53:00
1:53 AM,30.0,19.0,64,29.93,10.0,Calm,Calm,-,N/A,,Overcast,0,2013-02-26 08:53:00
2:53 AM,30.9,21.9,69,29.93,10.0,WNW,12.7,-,N/A,,Overcast,300,2013-02-26 09:53:00
3:53 AM,30.0,23.0,75,29.93,10.0,WNW,9.2,-,N/A,,Overcast,290,2013-02-26 10:53:00
4:53 AM,30.9,17.1,57,29.92,10.0,West,13.8,-,N/A,,Overcast,280,2013-02-26 11:53:00
5:53 AM,30.9,10.9,43,29.93,10.0,WNW,17.3,-,N/A,,Overcast,300,2013-02-26 12:53:00
6:53 AM,28.9,9.0,43,29.95,10.0,WNW,19.6,31.1,N/A,,Clear,290,2013-02-26 13:53:00
7:53 AM,30.0,10.0,43,30.00,10.0,West,13.8,-,N/A,,Clear,280,2013-02-26 14:53:00
8:53 AM,33.1,10.9,40,30.03,10.0,WNW,17.3,-,N/A,,Clear,300,2013-02-26 15:53:00
9:53 AM,36.0,10.0,34,30.04,10.0,WNW,16.1,-,N/A,,Clear,300,2013-02-26 16:53:00
10:53 AM,37.0,7.0,29,30.05,10.0,NW,6.9,-,N/A,,Mostly Cloudy,320,2013-02-26 17:53:00
11:53 AM,37.9,8.1,29,30.06,10.0,NNW,8.1,-,N/A,,Partly Cloudy,330,2013-02-26 18:53:00
12:53 PM,37.9,7.0,28,30.04,10.0,NNW,6.9,-,N/A,,Mostly Cloudy,330,2013-02-26 19:53:00
1:53 PM,39.9,6.1,25,30.04,10.0,North,3.5,-,N/A,,Clear,10,2013-02-26 20:53:00
2:53 PM,41.0,5.0,23,30.04,10.0,North,5.8,-,N/A,,Overcast,360,2013-02-26 21:53:00
3:53 PM,39.0,8.1,28,30.06,10.0,NNE,6.9,-,N/A,,Overcast,20,2013-02-26 22:53:00
4:25 PM,35.6,14.0,41,30.05,2.0,ENE,3.5,20.7,0.00,Snow,Light Snow,60,2013-02-26 23:25:00
4:34 PM,37.4,12.2,36,30.05,9.0,Variable,4.6,-,0.00,,Overcast,0,2013-02-26 23:34:00
4:53 PM,37.0,12.9,37,30.10,10.0,SSE,8.1,-,0.00,,Mostly Cloudy,150,2013-02-26 23:53:00
5:53 PM,33.1,17.1,52,30.13,10.0,West,9.2,-,N/A,,Partly Cloudy,270,2013-02-27 00:53:00
6:53 PM,30.9,16.0,54,30.17,10.0,NNE,3.5,-,N/A,,Clear,20,2013-02-27 01:53:00
7:53 PM,30.0,17.1,59,30.20,10.0,Calm,Calm,-,N/A,,Overcast,0,2013-02-27 02:53:00
8:53 PM,30.0,18.0,61,30.21,10.0,NW,5.8,-,N/A,,Scattered Clouds,320,2013-02-27 03:53:00
9:53 PM,28.9,17.1,61,30.22,10.0,NW,5.8,-,N/A,,Clear,320,2013-02-27 04:53:00
10:53 PM,25.0,14.0,63,30.26,10.0,Calm,Calm,-,N/A,,Clear,0,2013-02-27 05:53:00
11:53 PM,21.9,12.9,68,30.28,10.0,Calm,Calm,-,N/A,,Clear,0,2013-02-27 06:53:00